Tracking 31013 objects as of 11-Jul-2025
HD Live streaming from Space Station
objects crossing your sky now

APSTAR 1

Track APSTAR 1 now!
APSTAR 1 is classified as:


NORAD ID: 23185
Int'l Code: 1994-043A
Perigee: 36,029.7 km
Apogee: 36,061.8 km
Inclination: 13.0 °
Period: 1,449.0 minutes
Semi major axis: 42416 km
RCS: 25.1188 m2 (large)
Launch date: July 21, 1994
Source: People's Republic of China (PRC)
Launch site: Xichang Space Center, China (XSC)

24 C-band transponders.
Your satellite tracking list
Your tracking list is empty




NASA's NSSDC Master Catalog

Two Line Element Set (TLE):
1 23185U 94043A   25191.29975160 -.00000270  00000-0  00000-0 0  9996
2 23185  12.9709  20.3225 0003792  61.5073 277.5910  0.99379543 41674
Source of the keplerian elements: AFSPC